{"data":{"norad_id":63743,"intl_designator":"2025-088V","name":"KUIPER-00030","alt_names":[],"object_type":"PAYLOAD","status":"ACTIVE","operator":null,"country":"US","launch_date":"2025-04-28","launch_site_code":"AFETR","launch_vehicle":null,"mission":null,"orbit_class":"UNKNOWN","rcs_meters":null,"size_class":null,"mass_kg":null,"dimensions":null,"purposes":[],"wikipedia_slug":null,"has_3d_model":false,"image_url":null,"decayed_at":null,"tle_current":{"epoch":"2026-05-25T05:21:09.271008Z","epoch_age_seconds":59790,"freshness":"FRESH","line1":"1 63743U 25088V   26145.22302397  .00001483  00000+0  22349-3 0  9990","line2":"2 63743  51.9002 132.1217 0000709  70.7140 289.3899 14.79926110 58960","mean_motion":14.7992611,"eccentricity":7.09e-5,"inclination_deg":51.9002,"raan_deg":132.1217,"arg_perigee_deg":70.714,"mean_anomaly_deg":289.3899,"bstar":0.00022349,"rev_number":5896,"period_min":97.302155173139,"perigee_km":629.06053375054,"apogee_km":630.05422481352,"semimajor_km":7007.694379282,"source":"CELESTRAK","updated_at":"2026-05-25T13:38:03.929773Z"}}}